This is the latest recevied weather packets stored in our database for station/object KN6CRX. If no packets are shown the sender has not sent any weather packets the latest 10 day(s).
| Time | Temp. | Humidity | Pressure | Rain* | Wind** | Luminosity | Snow |
|---|---|---|---|---|---|---|---|
| 1787846902 | 23.33° C | 46% | 1023 hPa | 0 mm | - | 462 W/m² | - |
| 1787846600 | 22.78° C | 47% | 1023 hPa | 0 mm | - | 446 W/m² | - |
| 1787846296 | 22.78° C | 43% | 1022.9 hPa | 0 mm | - | 82 W/m² | - |
| 1787845992 | 22.22° C | 44% | 1022.6 hPa | 0 mm | - | 109 W/m² | - |
| 1787845688 | 22.22° C | 44% | 1023 hPa | 0 mm | - | 404 W/m² | - |
| 1787845387 | 21.67° C | 48% | 1023 hPa | 0 mm | - | 386 W/m² | - |
| 1787845083 | 20.56° C | 50% | 1023 hPa | 0 mm | - | 370 W/m² | - |
| 1787844779 | 20° C | 53% | 1022.9 hPa | 0 mm | - | 291 W/m² | - |
| 1787844477 | 19.44° C | 51% | 1023 hPa | 0 mm | - | 56 W/m² | - |
| 1787844173 | 19.44° C | 53% | 1023 hPa | 0 mm | - | 47 W/m² | - |
| 1787843872 | 19.44° C | 53% | 1023 hPa | 0 mm | - | 46 W/m² | - |
| 1787843567 | 19.44° C | 52% | 1023 hPa | 0 mm | - | 45 W/m² | - |
| 1787843263 | 19.44° C | 55% | 1022.9 hPa | 0 mm | - | 44 W/m² | - |
| 1787842959 | 19.44° C | 51% | 1023 hPa | 0 mm | - | 42 W/m² | - |
| 1787842658 | 19.44° C | 50% | 1023 hPa | 0 mm | - | 42 W/m² | - |
| 1787842353 | 18.89° C | 51% | 1023 hPa | 0 mm | - | 41 W/m² | - |
| 1787842048 | 18.89° C | 54% | 1022.9 hPa | 0 mm | - | 41 W/m² | - |
| 1787841744 | 18.33° C | 55% | 1022.8 hPa | 0 mm | - | 40 W/m² | - |
| 1787841439 | 17.78° C | 55% | 1023.1 hPa | 0 mm | - | 40 W/m² | - |
| 1787841133 | 17.78° C | 55% | 1023.2 hPa | 0 mm | - | 39 W/m² | - |
| 1787840828 | 17.22° C | 58% | 1023.2 hPa | 0 mm | - | 38 W/m² | - |
| 1787840523 | 17.22° C | 58% | 1023.2 hPa | 0 mm | - | 37 W/m² | - |
| 1787840218 | 16.67° C | 61% | 1023.2 hPa | 0 mm | - | 37 W/m² | - |
| 1787839918 | 16.11° C | 65% | 1023.1 hPa | 0 mm | - | 36 W/m² | - |
| 1787839614 | 16.11° C | 65% | 1023.3 hPa | 0 mm | - | 35 W/m² | - |
* Rain latest hour (hover to see other rain measurements)
** Current wind speed in m/s (hover to see current wind gust speed)